sat.trackr.live / text

‹ back to catalog

STARLINK-3391

NORAD 51117 · 2022-005P

PAYLOAD ACTIVE UNKNOWN

§ Identity

Operator
Country
US
Launch date
2022-01-19
Launch site
AFETR
Launch vehicle
Mass (kg)
RCS (m²)

Purposes: comms

External: N2YO · Heavens-Above · Gunter

§ Orbital elements

Epoch: 2026-05-25T03:53:30.006240Z

Period
95.44 min
Inclination
53.2127°
Eccentricity
0.0001243
Mean motion
15.08841730 rev/d
Perigee alt
538.9 km
Apogee alt
540.6 km
Semi-major
6,917.9 km
B*
6.9505e-5
RAAN
305.7118°
Arg perigee
87.3289°
Mean anomaly
272.7846°
Rev number
24,042

§ Raw data

STARLINK-33911 51117U 22005P   26145.16215285  .00000819  00000+0  69505-4 0  99982 51117  53.2127 305.7118 0001243  87.3289 272.7846 15.08841730240424

JSON: /api/v1/satellites/51117 · /tle

For live sub-satellite position, see the globe view (requires WebGL).

§ Visibility from observer

Set your observer location to see the next 7 days of passes ≥ 10°. The values pass through the URL so the page stays shareable.

No JS? Fill the form by hand. The geolocation button needs JavaScript.